Home > Weather > Melle > Past weeks

Flag for Germany Weather for the Past 2 Weeks in Melle, Lower Saxony, Germany

Now
32 °F

Light snow. Ice fog.


Feels Like: 29 °F
Forecast: 27 / 35 °F
Wind: 3 mph from North

Location: Muenster / Osnabrueck

Current Time: Feb 14, 2016 at 6:04:20 PM

Latest Report: Feb 14, 2016 at 5:20 PM


Visibility: 1 mi

Pressure: 29.30 "Hg

Humidity: 100%

Dew point: 32 °F

Location of MelleLocation

Historic Weather in Melle — Graph

°F

Melle Temperature Yesterday

Maximum temperature yesterday: 45 °F (at 1:50 PM)
Minimum temperature yesterday: 28 °F (at 3:20 AM)
Average temperature yesterday: 37 °F

High & Low Weather Summary for the Past Weeks

 TemperatureHumidityPressure
High54 °F (Feb 1, 3:50 PM)100% (Jan 31, 6:50 PM)30.27 "Hg (Jan 31, 6:50 PM)
Low28 °F (Feb 13, 3:20 AM)53% (Feb 13, 1:50 PM)28.77 "Hg (Feb 9, 5:50 PM)
Average42 °F83%29.64 "Hg
* Reported Jan 30 4:20 PM — Feb 14 4:50 PM, Melle, Weather by CustomWeather, © 2016

Note: Actual official high and low records may vary slightly from our data, if they occured in-between our weather recording intervals... More about our weather records

Advertising

Melle Weather History for the Previous 24 Hours

 ConditionsComfort  
Time TempWeatherWind HumidityBarometerVisibility
4:50 PM
Sun, Feb 14
32 °FLight snow. Ice fog.2 mph100%29.27 "Hg1 mi
4:20 PM34 °FLight rain. Fog.2 mph93%29.27 "Hg1 mi
3:50 PM34 °FLight rain. Fog.5 mph93%29.24 "Hg2 mi
3:20 PM36 °FLight rain. Partly sunny.5 mph93%29.24 "Hg4 mi
2:50 PM36 °FLight rain. Partly sunny.3 mph93%29.21 "Hg5 mi
2:20 PM36 °FLight rain. Partly sunny.7 mph93%29.21 "Hg4 mi
1:50 PM36 °FLight rain. Partly sunny.8 mph93%29.21 "Hg4 mi
1:20 PM36 °FLight rain. Partly sunny.9 mph93%29.18 "Hg4 mi
12:50 PM36 °FLight rain. Partly sunny.8 mph93%29.18 "Hg4 mi
12:20 PM36 °FLight rain. Partly sunny.8 mph93%29.18 "Hg4 mi
11:50 AM36 °FLight rain. Partly sunny.10 mph93%29.18 "Hg4 mi
11:20 AM36 °FLight rain. Partly sunny.9 mph93%29.15 "Hg4 mi
10:50 AM36 °FLight rain. Fog.9 mph93%29.15 "Hg3 mi
10:20 AM34 °FLight rain. Partly sunny.9 mph93%29.15 "Hg4 mi
9:50 AM36 °FLight rain. Fog.10 mph93%29.12 "Hg3 mi
9:20 AM36 °FLight rain. Fog.9 mph93%29.12 "Hg2 mi
8:20 AM34 °FLight rain. Fog.8 mph100%29.09 "Hg2 mi
7:50 AM36 °FLight rain. Fog.8 mph93%29.09 "Hg2 mi
7:20 AM36 °FLight rain. Fog.6 mph93%29.09 "Hg2 mi
6:50 AM36 °FLight rain. Fog.6 mph93%29.09 "Hg3 mi
6:20 AM36 °FLight rain. Fog.7 mph93%29.06 "Hg3 mi
5:50 AM34 °FLight rain. Fog.7 mph100%29.06 "Hg3 mi
5:20 AM34 °FLight rain. Fog.7 mph100%29.06 "Hg3 mi
4:50 AM36 °FLight rain. Fog.9 mph93%29.06 "Hg3 mi
4:20 AM36 °FLight rain. Fog.9 mph93%29.06 "Hg3 mi
3:50 AM36 °FLight rain. Passing clouds.9 mph93%29.06 "Hg5 mi
3:20 AM36 °FLight rain. Passing clouds.8 mph93%29.06 "Hg5 mi
2:20 AM36 °FLight rain. Passing clouds.7 mph93%29.06 "Hg5 mi
1:50 AM36 °FLight rain. Passing clouds.7 mph93%29.06 "Hg5 mi
1:20 AM37 °FLight rain. Passing clouds.8 mph87%29.06 "Hg5 mi
12:50 AM37 °FLight rain. Partly cloudy.6 mph87%29.06 "Hg5 mi
12:20 AM37 °FLight rain. Partly cloudy.7 mph87%29.06 "Hg5 mi
11:50 PM
Sat, Feb 13
37 °FLight rain. Passing clouds.6 mph87%29.09 "HgN/A
11:20 PM37 °FLight rain. Passing clouds.7 mph81%29.09 "HgN/A
10:50 PM39 °FLight rain. Passing clouds.6 mph75%29.09 "HgN/A
10:20 PM39 °FPassing clouds.6 mph75%29.09 "HgN/A
9:50 PM39 °FLight rain. Partly cloudy.6 mph75%29.09 "HgN/A
9:20 PM39 °FLight rain. Passing clouds.6 mph75%29.12 "HgN/A
8:50 PM39 °FPassing clouds.6 mph75%29.12 "HgN/A
8:20 PM41 °FPassing clouds.5 mph70%29.12 "HgN/A
7:50 PM41 °FPartly cloudy.6 mph70%29.12 "HgN/A
7:20 PM41 °FPartly cloudy.3 mph61%29.15 "HgN/A
6:50 PM41 °FPassing clouds.3 mph61%29.15 "HgN/A
6:20 PM41 °FPassing clouds.3 mph61%29.15 "HgN/A
Weather by CustomWeather, © 2016

See weather overviewHow to use our weather pages